sat.trackr.live / text

‹ back to catalog

STARLINK-34695

NORAD 64916 · 2025-157N

PAYLOAD ACTIVE UNKNOWN

§ Identity

Operator
Country
US
Launch date
2025-07-26
Launch site
AFETR
Launch vehicle
Mass (kg)
RCS (m²)

Purposes: comms

External: N2YO · Heavens-Above · Gunter

§ Orbital elements

Epoch: 2026-05-25T04:00:03.998880Z

Period
93.85 min
Inclination
53.1595°
Eccentricity
0.0001046
Mean motion
15.34396494 rev/d
Perigee alt
462.0 km
Apogee alt
463.4 km
Semi-major
6,840.9 km
B*
-4.0568e-4
RAAN
343.2493°
Arg perigee
66.7222°
Mean anomaly
310.8792°
Rev number
593

§ Raw data

STARLINK-346951 64916U 25157N   26145.16671295 -.00014056  00000+0 -40568-3 0  99942 64916  53.1595 343.2493 0001046  66.7222 310.8792 15.34396494  5935

JSON: /api/v1/satellites/64916 · /tle

For live sub-satellite position, see the globe view (requires WebGL).

§ Visibility from observer

Set your observer location to see the next 7 days of passes ≥ 10°. The values pass through the URL so the page stays shareable.

No JS? Fill the form by hand. The geolocation button needs JavaScript.